• In Netherlands
  • List of Countries
  • For 7 days
  • Water Temperature
  • Satellite Maps
  • Weather Map
  • Weather Widgets
  • user-avatar
    Login

    Hourly Weather Saurimo

    Today, 21 August, Monday

    Time Temperature Precipitation Wind Pressure Humidity
    00:00 +24°C° 0 mm 1 mps 671 mmHg 47%
    01:00 +23°C° 0 mm 1 mps 670 mmHg 50%
    02:00 +23°C° 0 mm 1 mps 670 mmHg 50%
    03:00 +23°C° 0 mm 2 mps 671 mmHg 50%
    04:00 +21°C° 0 mm 2 mps 671 mmHg 51%
    05:00 +23°C° 0 mm 2 mps 671 mmHg 47%
    06:00 +23°C° 0 mm 2 mps 671 mmHg 44%
    07:00 +24°C° 0 mm 3 mps 672 mmHg 40%
    08:00 +27°C° 0 mm 3 mps 672 mmHg 34%
    09:00 +30°C° 0 mm 4 mps 673 mmHg 27%
    10:00 +33°C° 0 mm 4 mps 673 mmHg 21%
    11:00 +35°C° 0 mm 4 mps 673 mmHg 19%
    12:00 +36°C° 0 mm 3 mps 672 mmHg 17%
    13:00 +37°C° 0 mm 3 mps 671 mmHg 16%
    14:00 +37°C° 0 mm 3 mps 671 mmHg 16%
    15:00 +37°C° 0 mm 3 mps 670 mmHg 15%
    16:00 +36°C° 0 mm 3 mps 670 mmHg 15%
    17:00 +34°C° 0 mm 2 mps 670 mmHg 18%
    18:00 +30°C° 0 mm 2 mps 670 mmHg 20%
    19:00 +28°C° 0 mm 2 mps 670 mmHg 23%
    20:00 +27°C° 0 mm 2 mps 670 mmHg 24%
    21:00 +26°C° 0 mm 2 mps 670 mmHg 25%
    22:00 +25°C° 0 mm 2 mps 670 mmHg 26%
    23:00 +24°C° 0 mm 2 mps 670 mmHg 26%

    Tomorrow, 22 August, Tuesday

    Time Temperature Precipitation Wind Pressure Humidity
    00:00 +23°C° 0 mm 2 mps 670 mmHg 26%
    01:00 +22°C° 0 mm 3 mps 670 mmHg 26%
    02:00 +21°C° 0 mm 3 mps 670 mmHg 26%
    03:00 +20°C° 0 mm 3 mps 669 mmHg 26%
    04:00 +20°C° 0 mm 2 mps 669 mmHg 26%
    05:00 +20°C° 0 mm 3 mps 670 mmHg 25%
    06:00 +21°C° 0 mm 3 mps 670 mmHg 25%
    07:00 +22°C° 0 mm 3 mps 671 mmHg 24%
    08:00 +26°C° 0 mm 3 mps 672 mmHg 21%
    09:00 +30°C° 0 mm 4 mps 672 mmHg 18%
    10:00 +34°C° 0 mm 4 mps 673 mmHg 15%
    11:00 +36°C° 0 mm 3 mps 673 mmHg 13%
    12:00 +37°C° 0 mm 2 mps 672 mmHg 11%
    13:00 +39°C° 0 mm 2 mps 671 mmHg 9%
    14:00 +39°C° 0 mm 2 mps 671 mmHg 9%
    15:00 +38°C° 0 mm 2 mps 670 mmHg 9%
    16:00 +37°C° 0 mm 2 mps 669 mmHg 9%
    17:00 +33°C° 0 mm 1 mps 669 mmHg 12%
    18:00 +31°C° 0 mm 1 mps 669 mmHg 14%
    19:00 +28°C° 0 mm 1 mps 669 mmHg 16%
    20:00 +27°C° 0 mm 1 mps 669 mmHg 18%
    21:00 +25°C° 0 mm 1 mps 669 mmHg 19%
    22:00 +24°C° 0 mm 1 mps 670 mmHg 21%
    23:00 +23°C° 0 mm 1 mps 669 mmHg 22%

    Day after tomorrow, 23 August, Wednesday

    Time Temperature Precipitation Wind Pressure Humidity
    00:00 +23°C° 0 mm 1 mps 669 mmHg 23%
    01:00 +22°C° 0 mm 1 mps 669 mmHg 24%
    02:00 +21°C° 0 mm 1 mps 668 mmHg 25%
    03:00 +21°C° 0 mm 1 mps 668 mmHg 26%
    04:00 +20°C° 0 mm 1 mps 668 mmHg 26%
    05:00 +21°C° 0 mm 1 mps 669 mmHg 25%
    06:00 +22°C° 0 mm 1 mps 669 mmHg 24%
    07:00 +23°C° 0 mm 1 mps 670 mmHg 22%
    08:00 +27°C° 0 mm 1 mps 671 mmHg 19%
    09:00 +31°C° 0 mm 2 mps 672 mmHg 16%
    10:00 +36°C° 0 mm 2 mps 673 mmHg 12%
    11:00 +38°C° 0 mm 2 mps 672 mmHg 11%
    12:00 +39°C° 0 mm 2 mps 671 mmHg 10%
    13:00 +40°C° 0 mm 2 mps 671 mmHg 9%
    14:00 +40°C° 0 mm 2 mps 670 mmHg 9%
    15:00 +39°C° 0 mm 1 mps 669 mmHg 10%
    16:00 +37°C° 0 mm 1 mps 669 mmHg 10%
    17:00 +35°C° 0 mm 1 mps 669 mmHg 13%
    18:00 +32°C° 0 mm 1 mps 669 mmHg 16%
    19:00 +29°C° 0 mm 1 mps 669 mmHg 19%
    20:00 +28°C° 0 mm 1 mps 669 mmHg 23%
    21:00 +27°C° 0 mm 1 mps 669 mmHg 28%
    22:00 +26°C° 0 mm 1 mps 669 mmHg 32%
    23:00 +25°C° 0 mm 1 mps 669 mmHg 36%

    24 August, Thursday

    Time Temperature Precipitation Wind Pressure Humidity
    00:00 +24°C° 0 mm 1 mps 669 mmHg 39%
    01:00 +24°C° 0 mm 1 mps 668 mmHg 43%
    02:00 +23°C° 0 mm 1 mps 668 mmHg 45%
    03:00 +23°C° 0 mm 1 mps 668 mmHg 48%
    04:00 +22°C° 0 mm 1 mps 668 mmHg 50%
    05:00 +23°C° 0 mm 1 mps 669 mmHg 48%
    06:00 +24°C° 0 mm 1 mps 669 mmHg 45%
    07:00 +25°C° 0 mm 1 mps 670 mmHg 43%
    08:00 +28°C° 0 mm 1 mps 671 mmHg 36%
    09:00 +32°C° 0 mm 2 mps 671 mmHg 30%
    10:00 +36°C° 0 mm 2 mps 672 mmHg 23%
    11:00 +39°C° 0 mm 1 mps 672 mmHg 19%
    12:00 +42°C° 0 mm 1 mps 671 mmHg 15%
    13:00 +42°C° 0 mm 0 mps 671 mmHg 11%
    14:00 +42°C° 0 mm 1 mps 670 mmHg 12%
    15:00 +40°C° 0 mm 1 mps 670 mmHg 13%
    16:00 +37°C° 0 mm 1 mps 669 mmHg 14%
    17:00 +35°C° 0 mm 1 mps 669 mmHg 16%
    18:00 +33°C° 0 mm 1 mps 669 mmHg 18%
    19:00 +31°C° 0 mm 1 mps 669 mmHg 21%
    20:00 +29°C° 0 mm 1 mps 669 mmHg 24%
    21:00 +28°C° 0 mm 1 mps 669 mmHg 27%
    22:00 +27°C° 0 mm 1 mps 669 mmHg 30%
    23:00 +26°C° 0 mm 1 mps 669 mmHg 33%

    25 August, Friday

    Time Temperature Precipitation Wind Pressure Humidity
    00:00 +25°C° 0 mm 1 mps 668 mmHg 35%
    01:00 +24°C° 0 mm 1 mps 668 mmHg 38%
    02:00 +24°C° 0 mm 1 mps 668 mmHg 40%
    03:00 +23°C° 0 mm 1 mps 668 mmHg 42%
    04:00 +23°C° 0 mm 1 mps 668 mmHg 44%
    05:00 +23°C° 0 mm 2 mps 669 mmHg 42%
    06:00 +24°C° 0 mm 2 mps 669 mmHg 40%
    07:00 +25°C° 0 mm 2 mps 670 mmHg 38%
    08:00 +28°C° 0 mm 2 mps 671 mmHg 31%
    09:00 +32°C° 0 mm 2 mps 671 mmHg 25%
    10:00 +36°C° 0 mm 2 mps 672 mmHg 19%
    11:00 +39°C° 0 mm 2 mps 671 mmHg 16%
    12:00 +41°C° 0 mm 1 mps 671 mmHg 12%
    13:00 +44°C° 0 mm 1 mps 671 mmHg 9%
    14:00 +43°C° 0 mm 1 mps 670 mmHg 9%
    15:00 +41°C° 0 mm 1 mps 669 mmHg 9%
    16:00 +40°C° 0 mm 1 mps 669 mmHg 9%
    17:00 +36°C° 0 mm 1 mps 668 mmHg 12%
    18:00 +33°C° 0 mm 1 mps 668 mmHg 14%
    19:00 +30°C° 0 mm 1 mps 668 mmHg 16%
    20:00 +29°C° 0 mm 1 mps 668 mmHg 18%
    21:00 +27°C° 0 mm 1 mps 668 mmHg 20%
    22:00 +26°C° 0 mm 1 mps 668 mmHg 22%
    23:00 +26°C° 0 mm 1 mps 668 mmHg 24%

    26 August, Saturday

    Time Temperature Precipitation Wind Pressure Humidity
    00:00 +25°C° 0 mm 1 mps 668 mmHg 26%
    01:00 +25°C° 0 mm 1 mps 668 mmHg 27%
    02:00 +25°C° 0 mm 1 mps 668 mmHg 29%
    03:00 +24°C° 0 mm 1 mps 668 mmHg 31%
    04:00 +24°C° 0 mm 1 mps 668 mmHg 33%
    05:00 +24°C° 0 mm 1 mps 669 mmHg 32%
    06:00 +25°C° 0 mm 1 mps 669 mmHg 31%
    07:00 +26°C° 0 mm 1 mps 670 mmHg 29%
    08:00 +29°C° 0 mm 1 mps 671 mmHg 25%
    09:00 +33°C° 0 mm 1 mps 671 mmHg 21%
    10:00 +37°C° 0 mm 2 mps 672 mmHg 17%
    11:00 +39°C° 0 mm 1 mps 671 mmHg 15%
    12:00 +40°C° 0 mm 1 mps 671 mmHg 13%
    13:00 +42°C° 0 mm 1 mps 670 mmHg 12%
    14:00 +40°C° 0 mm 1 mps 670 mmHg 13%
    15:00 +39°C° 0 mm 2 mps 669 mmHg 15%
    16:00 +37°C° 0 mm 2 mps 669 mmHg 16%
    17:00 +35°C° 0 mm 2 mps 669 mmHg 19%
    18:00 +32°C° 0 mm 2 mps 669 mmHg 23%
    19:00 +30°C° 0 mm 2 mps 669 mmHg 26%
    20:00 +29°C° 0 mm 1 mps 669 mmHg 30%
    21:00 +28°C° 0 mm 1 mps 669 mmHg 34%
    22:00 +27°C° 0 mm 1 mps 669 mmHg 38%
    23:00 +26°C° 0 mm 1 mps 669 mmHg 40%
    Show more